When you browse on this site, cookies collect data to enhance your experience and personalize the content and advertising you see.
Visit our Privacy Policy to learn more. By continuing to use the site, you agree to this use of cookies and data.
  • In Belgium
  • List of Countries
  • For 7 days
  • Water Temperature
  • Weather Map
  • Weather Widgets
  • user-avatar
    Login

    Hourly Weather Kozani

    Today, 22 January, Wednesday

    Time Temperature Precipitation Wind Pressure Humidity
    00:00 +2°C° 0 mm 1 mps 715 mmHg 45%
    01:00 +2°C° 0 mm 1 mps 715 mmHg 45%
    02:00 +2°C° 0 mm 1 mps 714 mmHg 44%
    03:00 +2°C° 0 mm 1 mps 714 mmHg 44%
    04:00 +2°C° 0 mm 1 mps 713 mmHg 43%
    05:00 +2°C° 0 mm 1 mps 713 mmHg 42%
    06:00 +2°C° 0 mm 1 mps 713 mmHg 41%
    07:00 +2°C° 0 mm 1 mps 713 mmHg 40%
    08:00 +4°C° 0 mm 1 mps 713 mmHg 38%
    09:00 +6°C° 0 mm 1 mps 713 mmHg 35%
    10:00 +8°C° 0 mm 1 mps 713 mmHg 32%
    11:00 +9°C° 0 mm 1 mps 713 mmHg 32%
    12:00 +10°C° 0 mm 1 mps 712 mmHg 32%
    13:00 +11°C° 0 mm 1 mps 712 mmHg 32%
    14:00 +10°C° 0 mm 1 mps 711 mmHg 37%
    15:00 +9°C° 0 mm 1 mps 711 mmHg 41%
    16:00 +7°C° 0 mm 0 mps 710 mmHg 45%
    17:00 +7°C° 0 mm 1 mps 710 mmHg 45%
    18:00 +6°C° 0 mm 1 mps 710 mmHg 46%
    19:00 +6°C° 0 mm 1 mps 709 mmHg 46%
    20:00 +5°C° 0 mm 1 mps 709 mmHg 46%
    21:00 +5°C° 0 mm 1 mps 709 mmHg 45%
    22:00 +5°C° 0 mm 1 mps 708 mmHg 45%
    23:00 +5°C° 0 mm 1 mps 708 mmHg 44%

    Tomorrow, 23 January, Thursday

    Time Temperature Precipitation Wind Pressure Humidity
    00:00 +4°C° 0 mm 1 mps 708 mmHg 43%
    01:00 +4°C° 0 mm 1 mps 708 mmHg 42%
    02:00 +4°C° 0 mm 1 mps 708 mmHg 42%
    03:00 +3°C° 0 mm 2 mps 707 mmHg 41%
    04:00 +3°C° 0 mm 2 mps 707 mmHg 41%
    05:00 +3°C° 0 mm 2 mps 707 mmHg 41%
    06:00 +3°C° 0 mm 2 mps 708 mmHg 40%
    07:00 +2°C° 0 mm 2 mps 708 mmHg 40%
    08:00 +4°C° 0 mm 2 mps 709 mmHg 39%
    09:00 +6°C° 0 mm 2 mps 710 mmHg 38%
    10:00 +7°C° 0 mm 2 mps 710 mmHg 36%
    11:00 +8°C° 0 mm 2 mps 711 mmHg 38%
    12:00 +8°C° 0 mm 2 mps 711 mmHg 40%
    13:00 +9°C° 0 mm 2 mps 711 mmHg 42%
    14:00 +8°C° 0 mm 2 mps 711 mmHg 47%
    15:00 +8°C° 0 mm 1 mps 711 mmHg 53%
    16:00 +7°C° 0 mm 1 mps 711 mmHg 58%
    17:00 +6°C° 0 mm 1 mps 712 mmHg 62%
    18:00 +5°C° 0 mm 1 mps 712 mmHg 67%
    19:00 +2°C° 0 mm 0 mps 712 mmHg 71%
    20:00 +2°C° 0 mm 0 mps 712 mmHg 73%
    21:00 +2°C° 0 mm 0 mps 712 mmHg 75%
    22:00 +1°C° 0 mm 0 mps 713 mmHg 78%
    23:00 +1°C° 0 mm 0 mps 713 mmHg 80%

    Day after tomorrow, 24 January, Friday

    Time Temperature Precipitation Wind Pressure Humidity
    00:00 +1°C° 0 mm 0 mps 713 mmHg 82%
    01:00 +2°C° 0 mm 1 mps 713 mmHg 84%
    02:00 +2°C° 0 mm 1 mps 713 mmHg 87%
    03:00 +2°C° 0 mm 1 mps 713 mmHg 89%
    04:00 +1°C° 0 mm 1 mps 713 mmHg 91%
    05:00 +2°C° 0 mm 1 mps 713 mmHg 91%
    06:00 +2°C° 0 mm 1 mps 713 mmHg 90%
    07:00 +2°C° 0 mm 1 mps 714 mmHg 90%
    08:00 +3°C° 0 mm 1 mps 714 mmHg 84%
    09:00 +4°C° 0 mm 1 mps 714 mmHg 77%
    10:00 +5°C° 0 mm 1 mps 714 mmHg 71%
    11:00 +5°C° 0 mm 1 mps 714 mmHg 67%
    12:00 +6°C° 0 mm 1 mps 713 mmHg 64%
    13:00 +7°C° 0 mm 1 mps 713 mmHg 60%
    14:00 +7°C° 0 mm 1 mps 713 mmHg 64%
    15:00 +6°C° 0 mm 1 mps 712 mmHg 67%
    16:00 +6°C° 0 mm 1 mps 712 mmHg 70%
    17:00 +5°C° 0 mm 1 mps 712 mmHg 73%
    18:00 +3°C° 0 mm 0 mps 712 mmHg 76%
    19:00 +2°C° 0 mm 0 mps 712 mmHg 79%
    20:00 +2°C° 0 mm 0 mps 712 mmHg 80%
    21:00 +3°C° 0 mm 1 mps 712 mmHg 82%
    22:00 +3°C° 0 mm 1 mps 712 mmHg 83%
    23:00 +3°C° 0 mm 1 mps 712 mmHg 83%

    25 January, Saturday

    Time Temperature Precipitation Wind Pressure Humidity
    00:00 +3°C° 0 mm 1 mps 711 mmHg 84%
    01:00 +3°C° 0 mm 1 mps 711 mmHg 84%
    02:00 +3°C° 0 mm 1 mps 711 mmHg 84%
    03:00 +3°C° 0 mm 1 mps 710 mmHg 84%
    04:00 +3°C° 0 mm 1 mps 710 mmHg 84%
    05:00 +3°C° 0 mm 1 mps 710 mmHg 84%
    06:00 +3°C° 0 mm 1 mps 710 mmHg 83%
    07:00 +3°C° 0 mm 1 mps 710 mmHg 83%
    08:00 +5°C° 0 mm 1 mps 710 mmHg 76%
    09:00 +6°C° 0 mm 1 mps 710 mmHg 69%
    10:00 +8°C° 0 mm 1 mps 711 mmHg 62%
    11:00 +9°C° 0 mm 1 mps 710 mmHg 60%
    12:00 +10°C° 0 mm 1 mps 710 mmHg 58%
    13:00 +11°C° 0 mm 1 mps 710 mmHg 56%
    14:00 +10°C° 0 mm 1 mps 710 mmHg 59%
    15:00 +10°C° 0 mm 1 mps 709 mmHg 63%
    16:00 +9°C° 0 mm 1 mps 709 mmHg 66%
    17:00 +9°C° 0 mm 1 mps 709 mmHg 70%
    18:00 +8°C° 0 mm 1 mps 709 mmHg 74%
    19:00 +7°C° 0 mm 1 mps 709 mmHg 77%
    20:00 +6°C° 0 mm 1 mps 709 mmHg 79%
    21:00 +6°C° 0 mm 1 mps 710 mmHg 81%
    22:00 +6°C° 0 mm 1 mps 710 mmHg 82%
    23:00 +6°C° 0 mm 1 mps 709 mmHg 83%

    26 January, Sunday

    Time Temperature Precipitation Wind Pressure Humidity
    00:00 +5°C° 0 mm 1 mps 709 mmHg 84%
    01:00 +4°C° 0 mm 0 mps 709 mmHg 84%
    02:00 +4°C° 0 mm 0 mps 709 mmHg 84%
    03:00 +4°C° 0 mm 0 mps 709 mmHg 85%
    04:00 +4°C° 0 mm 0 mps 709 mmHg 85%
    05:00 +4°C° 0 mm 0 mps 709 mmHg 85%
    06:00 +4°C° 0 mm 0 mps 709 mmHg 85%
    07:00 +4°C° 0 mm 0 mps 709 mmHg 85%
    08:00 +5°C° 0 mm 0 mps 709 mmHg 80%
    09:00 +7°C° 0 mm 0 mps 710 mmHg 75%
    10:00 +8°C° 0 mm 0 mps 710 mmHg 70%
    11:00 +10°C° 0 mm 1 mps 710 mmHg 67%
    12:00 +10°C° 0 mm 1 mps 709 mmHg 65%
    13:00 +11°C° 0 mm 1 mps 709 mmHg 63%
    14:00 +10°C° 0 mm 1 mps 709 mmHg 67%
    15:00 +10°C° 0 mm 1 mps 708 mmHg 70%
    16:00 +10°C° 0 mm 1 mps 708 mmHg 74%
    17:00 +9°C° 0.1 mm 1 mps 708 mmHg 78%
    18:00 +8°C° 0.1 mm 1 mps 708 mmHg 82%
    19:00 +7°C° 0.1 mm 0 mps 708 mmHg 86%
    20:00 +7°C° 0.3 mm 0 mps 708 mmHg 87%
    21:00 +7°C° 0.3 mm 0 mps 708 mmHg 89%
    22:00 +7°C° 0.3 mm 0 mps 709 mmHg 90%
    23:00 +7°C° 0.2 mm 0 mps 708 mmHg 91%

    27 January, Monday

    Time Temperature Precipitation Wind Pressure Humidity
    00:00 +7°C° 0.2 mm 0 mps 708 mmHg 92%
    01:00 +6°C° 0.2 mm 0 mps 708 mmHg 93%
    02:00 +6°C° 0 mm 0 mps 708 mmHg 93%
    03:00 +6°C° 0 mm 0 mps 708 mmHg 93%
    04:00 +7°C° 0 mm 1 mps 708 mmHg 93%
    05:00 +6°C° 0 mm 0 mps 708 mmHg 93%
    06:00 +5°C° 0 mm 0 mps 708 mmHg 93%
    07:00 +5°C° 0 mm 0 mps 708 mmHg 93%
    08:00 +8°C° 0 mm 1 mps 709 mmHg 88%
    09:00 +9°C° 0 mm 1 mps 709 mmHg 84%
    10:00 +10°C° 0 mm 1 mps 709 mmHg 79%
    11:00 +11°C° 0 mm 1 mps 709 mmHg 75%
    12:00 +12°C° 0 mm 1 mps 709 mmHg 71%
    13:00 +12°C° 0 mm 2 mps 709 mmHg 68%
    14:00 +12°C° 0 mm 1 mps 709 mmHg 70%
    15:00 +11°C° 0 mm 1 mps 709 mmHg 72%
    16:00 +11°C° 0 mm 1 mps 709 mmHg 73%
    17:00 +10°C° 0 mm 1 mps 709 mmHg 77%
    18:00 +9°C° 0 mm 1 mps 709 mmHg 81%
    19:00 +8°C° 0 mm 1 mps 709 mmHg 84%
    20:00 +8°C° 0 mm 1 mps 709 mmHg 85%
    21:00 +7°C° 0 mm 1 mps 710 mmHg 85%
    22:00 +7°C° 0 mm 1 mps 710 mmHg 85%
    23:00 +6°C° 0 mm 0 mps 710 mmHg 85%
    Show more